Time,TemperatureF,DewpointF,PressureIn,WindDirection,WindDirectionDegrees,WindSpeedMPH,WindSpeedGustMPH,Humidity,HourlyPrecipIn,Conditions,Clouds,dailyrainin,SoftwareType,DateUTC
2013-02-08 00:00:00,35.4,29.8,29.86,SSE,155,2.0,-999.0,80,0.00,,,0.00,Wunderground v.1.15,2013-02-08 05:00:00,
2013-02-08 00:01:00,35.4,29.8,29.86,SSE,155,2.0,-999.0,80,0.00,,,0.00,Wunderground v.1.15,2013-02-08 05:01:00,
2013-02-08 00:03:00,35.4,29.5,29.86,SSE,155,1.0,-999.0,79,0.00,,,0.00,Wunderground v.1.15,2013-02-08 05:03:00,
2013-02-08 00:09:00,35.3,29.7,29.86,SSE,155,1.0,-999.0,80,0.00,,,0.00,Wunderground v.1.15,2013-02-08 05:09:00,
2013-02-08 00:15:00,35.1,29.6,29.86,SSE,155,0.0,-999.0,80,0.00,,,0.00,Wunderground v.1.15,2013-02-08 05:15:00,
2013-02-08 00:21:00,35.0,29.5,29.85,SSE,155,1.0,-999.0,80,0.00,,,0.00,Wunderground v.1.15,2013-02-08 05:21:00,
2013-02-08 00:23:00,35.0,29.5,29.85,SSE,155,1.0,-999.0,80,0.00,,,0.00,Wunderground v.1.15,2013-02-08 05:23:00,
2013-02-08 00:29:00,34.8,29.6,29.85,SSE,158,1.0,-999.0,81,0.00,,,0.00,Wunderground v.1.15,2013-02-08 05:29:00,
2013-02-08 00:35:00,34.8,29.6,29.85,SSE,158,1.0,-999.0,81,0.00,,,0.00,Wunderground v.1.15,2013-02-08 05:35:00,
2013-02-08 00:41:00,34.9,30.0,29.85,SSE,156,1.0,-999.0,82,0.00,,,0.00,Wunderground v.1.15,2013-02-08 05:41:00,
2013-02-08 00:47:00,34.9,30.0,29.84,SSE,152,1.0,-999.0,82,0.00,,,0.00,Wunderground v.1.15,2013-02-08 05:47:00,
2013-02-08 00:53:00,35.0,30.1,29.84,SSE,161,1.0,-999.0,82,0.00,,,0.00,Wunderground v.1.15,2013-02-08 05:53:00,
2013-02-08 00:59:00,35.2,30.3,29.84,SSE,159,1.0,-999.0,82,0.00,,,0.00,Wunderground v.1.15,2013-02-08 05:59:00,
2013-02-08 01:05:00,35.2,30.3,29.84,SE,146,0.0,-999.0,82,0.00,,,0.00,Wunderground v.1.15,2013-02-08 06:05:00,
2013-02-08 01:11:00,35.0,30.1,29.84,SE,146,0.0,-999.0,82,0.00,,,0.00,Wunderground v.1.15,2013-02-08 06:11:00,
2013-02-08 01:17:00,34.6,29.7,29.83,SSE,147,0.0,-999.0,82,0.00,,,0.00,Wunderground v.1.15,2013-02-08 06:17:00,
2013-02-08 01:22:00,34.4,29.8,29.83,SSE,160,0.0,-999.0,83,0.00,,,0.00,Wunderground v.1.15,2013-02-08 06:22:00,
2013-02-08 01:28:00,34.6,30.0,29.83,SSE,165,1.0,-999.0,83,0.00,,,0.00,Wunderground v.1.15,2013-02-08 06:28:00,
2013-02-08 01:34:00,34.6,30.0,29.82,SSE,157,0.0,-999.0,83,0.00,,,0.00,Wunderground v.1.15,2013-02-08 06:34:00,
2013-02-08 01:40:00,34.5,29.9,29.82,SSE,157,0.0,-999.0,83,0.00,,,0.00,Wunderground v.1.15,2013-02-08 06:40:00,
2013-02-08 01:45:00,34.4,30.1,29.82,SSE,149,0.0,-999.0,84,0.00,,,0.00,Wunderground v.1.15,2013-02-08 06:45:00,
2013-02-08 01:50:00,34.3,30.0,29.82,SSE,150,0.0,-999.0,84,0.00,,,0.00,Wunderground v.1.15,2013-02-08 06:50:00,
2013-02-08 01:56:00,34.1,29.8,29.81,SSE,150,0.0,-999.0,84,0.00,,,0.00,Wunderground v.1.15,2013-02-08 06:56:00,
2013-02-08 02:02:00,34.4,30.4,29.81,SSE,157,2.0,-999.0,85,0.00,,,0.00,Wunderground v.1.15,2013-02-08 07:02:00,
2013-02-08 02:08:00,34.8,30.5,29.81,SSE,153,3.0,-999.0,84,0.00,,,0.00,Wunderground v.1.15,2013-02-08 07:08:00,
2013-02-08 02:14:00,34.5,30.2,29.81,SSE,165,2.0,-999.0,84,0.00,,,0.00,Wunderground v.1.15,2013-02-08 07:14:00,
2013-02-08 02:20:00,34.4,30.1,29.81,SSE,165,1.0,-999.0,84,0.00,,,0.00,Wunderground v.1.15,2013-02-08 07:20:00,
2013-02-08 02:26:00,33.9,29.3,29.80,SSE,165,0.0,-999.0,83,0.00,,,0.00,Wunderground v.1.15,2013-02-08 07:26:00,
2013-02-08 02:32:00,33.1,29.1,29.80,SSE,165,1.0,-999.0,85,0.00,,,0.00,Wunderground v.1.15,2013-02-08 07:32:00,
2013-02-08 02:37:00,33.2,29.8,29.80,SSE,165,1.0,-999.0,87,0.00,,,0.00,Wunderground v.1.15,2013-02-08 07:37:00,
2013-02-08 02:43:00,33.1,31.0,29.80,SSE,154,2.0,-999.0,92,0.00,,,0.00,Wunderground v.1.15,2013-02-08 07:43:00,
2013-02-08 02:49:00,33.7,30.2,29.79,SSE,163,3.0,-999.0,87,0.00,,,0.00,Wunderground v.1.15,2013-02-08 07:49:00,
2013-02-08 02:55:00,34.2,31.0,29.79,SSE,160,3.0,-999.0,88,0.00,,,0.00,Wunderground v.1.15,2013-02-08 07:55:00,
2013-02-08 03:01:00,35.0,31.5,29.78,SSE,150,4.0,-999.0,87,0.00,,,0.00,Wunderground v.1.15,2013-02-08 08:01:00,
2013-02-08 03:07:00,35.7,31.9,29.79,SSE,167,5.0,-999.0,86,0.00,,,0.00,Wunderground v.1.15,2013-02-08 08:07:00,
2013-02-08 03:12:00,35.6,31.5,29.79,South,172,3.0,-999.0,85,0.00,,,0.00,Wunderground v.1.15,2013-02-08 08:12:00,
2013-02-08 03:18:00,35.0,30.9,29.78,SSE,167,3.0,-999.0,85,0.00,,,0.00,Wunderground v.1.15,2013-02-08 08:18:00,
2013-02-08 03:24:00,34.1,30.4,29.78,SSE,168,4.0,-999.0,86,0.00,,,0.00,Wunderground v.1.15,2013-02-08 08:24:00,
2013-02-08 03:30:00,34.3,30.8,29.78,South,177,4.0,-999.0,87,0.00,,,0.00,Wunderground v.1.15,2013-02-08 08:30:00,
2013-02-08 03:36:00,34.1,30.6,29.78,South,174,3.0,-999.0,87,0.00,,,0.00,Wunderground v.1.15,2013-02-08 08:36:00,
2013-02-08 03:42:00,34.0,30.5,29.77,South,173,3.0,-999.0,87,0.00,,,0.00,Wunderground v.1.15,2013-02-08 08:42:00,
2013-02-08 03:48:00,33.8,30.6,29.77,South,173,3.0,-999.0,88,0.00,,,0.00,Wunderground v.1.15,2013-02-08 08:48:00,
2013-02-08 03:54:00,34.1,31.2,29.77,South,173,1.0,-999.0,89,0.00,,,0.00,Wunderground v.1.15,2013-02-08 08:54:00,
2013-02-08 04:00:00,34.8,32.2,29.76,South,173,1.0,-999.0,90,0.00,,,0.00,Wunderground v.1.15,2013-02-08 09:00:00,
2013-02-08 04:06:00,35.4,32.5,29.76,SSE,166,1.0,-999.0,89,0.00,,,0.00,Wunderground v.1.15,2013-02-08 09:06:00,
2013-02-08 04:12:00,35.8,32.9,29.76,SSE,166,2.0,-999.0,89,0.00,,,0.00,Wunderground v.1.15,2013-02-08 09:12:00,
2013-02-08 04:17:00,36.2,33.3,29.76,SSE,166,2.0,-999.0,89,0.00,,,0.00,Wunderground v.1.15,2013-02-08 09:17:00,
2013-02-08 04:23:00,36.5,33.3,29.75,SSE,166,3.0,-999.0,88,0.00,,,0.00,Wunderground v.1.15,2013-02-08 09:23:00,
2013-02-08 04:29:00,36.8,33.6,29.75,SSE,166,3.0,-999.0,88,0.00,,,0.00,Wunderground v.1.15,2013-02-08 09:29:00,
2013-02-08 04:35:00,37.4,34.2,29.75,SSE,162,3.0,-999.0,88,0.00,,,0.00,Wunderground v.1.15,2013-02-08 09:35:00,
2013-02-08 04:41:00,37.9,34.4,29.75,South,171,4.0,-999.0,87,0.00,,,0.00,Wunderground v.1.15,2013-02-08 09:41:00,
2013-02-08 04:47:00,38.8,35.3,29.75,SSE,164,5.0,-999.0,87,0.00,,,0.00,Wunderground v.1.15,2013-02-08 09:47:00,
2013-02-08 04:53:00,39.4,35.6,29.75,South,175,6.0,-999.0,86,0.00,,,0.00,Wunderground v.1.15,2013-02-08 09:53:00,
2013-02-08 04:59:00,39.8,35.7,29.74,SSW,197,7.0,-999.0,85,0.00,,,0.00,Wunderground v.1.15,2013-02-08 09:59:00,
2013-02-08 05:05:00,40.1,35.7,29.74,South,177,6.0,-999.0,84,0.00,,,0.00,Wunderground v.1.15,2013-02-08 10:05:00,
2013-02-08 05:11:00,40.2,35.8,29.74,South,172,6.0,-999.0,84,0.00,,,0.00,Wunderground v.1.15,2013-02-08 10:11:00,
2013-02-08 05:16:00,40.2,35.8,29.74,South,179,6.0,-999.0,84,0.00,,,0.00,Wunderground v.1.15,2013-02-08 10:16:00,
2013-02-08 05:22:00,40.3,35.8,29.73,South,186,6.0,-999.0,84,0.00,,,0.00,Wunderground v.1.15,2013-02-08 10:22:00,
2013-02-08 05:28:00,40.3,35.8,29.73,South,173,6.0,-999.0,84,0.00,,,0.00,Wunderground v.1.15,2013-02-08 10:28:00,
2013-02-08 05:34:00,40.5,36.0,29.73,South,171,7.0,-999.0,84,0.00,,,0.00,Wunderground v.1.15,2013-02-08 10:34:00,
2013-02-08 05:40:00,40.6,35.8,29.73,South,182,7.0,-999.0,83,0.00,,,0.00,Wunderground v.1.15,2013-02-08 10:40:00,
2013-02-08 05:46:00,40.5,35.7,29.73,SW,216,6.0,-999.0,83,0.00,,,0.00,Wunderground v.1.15,2013-02-08 10:46:00,
2013-02-08 05:52:00,40.6,35.8,29.73,SSE,163,6.0,-999.0,83,0.00,,,0.00,Wunderground v.1.15,2013-02-08 10:52:00,
2013-02-08 05:58:00,40.6,35.8,29.73,South,188,7.0,-999.0,83,0.00,,,0.00,Wunderground v.1.15,2013-02-08 10:58:00,
2013-02-08 06:03:00,40.4,35.9,29.73,South,173,6.0,-999.0,84,0.00,,,0.00,Wunderground v.1.15,2013-02-08 11:03:00,
2013-02-08 06:09:00,40.1,36.0,29.73,South,184,5.0,-999.0,85,0.00,,,0.00,Wunderground v.1.15,2013-02-08 11:09:00,
2013-02-08 06:15:00,40.1,36.0,29.72,SSW,202,5.0,-999.0,85,0.00,,,0.00,Wunderground v.1.15,2013-02-08 11:15:00,
2013-02-08 06:21:00,40.2,36.1,29.72,South,179,6.0,-999.0,85,0.00,,,0.01,Wunderground v.1.15,2013-02-08 11:21:00,
2013-02-08 06:27:00,40.0,35.9,29.72,South,183,5.0,-999.0,85,0.00,,,0.01,Wunderground v.1.15,2013-02-08 11:27:00,
2013-02-08 06:33:00,40.1,36.2,29.72,South,186,5.0,-999.0,86,0.00,,,0.01,Wunderground v.1.15,2013-02-08 11:33:00,
2013-02-08 06:39:00,39.9,36.1,29.73,South,189,5.0,-999.0,86,0.00,,,0.01,Wunderground v.1.15,2013-02-08 11:39:00,
2013-02-08 06:45:00,39.9,36.3,29.73,SSW,193,4.0,-999.0,87,0.00,,,0.01,Wunderground v.1.15,2013-02-08 11:45:00,
2013-02-08 06:51:00,39.9,36.3,29.73,SSW,209,4.0,-999.0,87,0.00,,,0.02,Wunderground v.1.15,2013-02-08 11:51:00,
2013-02-08 06:57:00,39.8,36.2,29.73,SSW,192,4.0,-999.0,87,0.00,,,0.02,Wunderground v.1.15,2013-02-08 11:57:00,
2013-02-08 07:02:00,39.8,36.5,29.73,SSW,204,3.0,-999.0,88,0.00,,,0.02,Wunderground v.1.15,2013-02-08 12:02:00,
2013-02-08 07:08:00,39.6,36.3,29.73,SSW,194,2.0,-999.0,88,0.04,,,0.03,Wunderground v.1.15,2013-02-08 12:08:00,
2013-02-08 07:14:00,39.4,36.4,29.74,SSW,206,2.0,-999.0,89,0.09,,,0.04,Wunderground v.1.15,2013-02-08 12:14:00,
2013-02-08 07:20:00,39.3,36.3,29.74,SSW,194,2.0,-999.0,89,0.10,,,0.05,Wunderground v.1.15,2013-02-08 12:20:00,
2013-02-08 07:26:00,39.2,36.5,29.74,SW,219,2.0,-999.0,90,0.16,,,0.06,Wunderground v.1.15,2013-02-08 12:26:00,
2013-02-08 07:32:00,39.2,36.5,29.74,SSW,205,3.0,-999.0,90,0.07,,,0.07,Wunderground v.1.15,2013-02-08 12:32:00,
2013-02-08 07:38:00,39.1,36.4,29.74,South,188,2.0,-999.0,90,0.07,,,0.07,Wunderground v.1.15,2013-02-08 12:38:00,
2013-02-08 07:44:00,39.0,36.6,29.74,SSW,199,2.0,-999.0,91,0.07,,,0.08,Wunderground v.1.15,2013-02-08 12:44:00,
2013-02-08 07:50:00,38.9,36.5,29.75,South,187,2.0,-999.0,91,0.06,,,0.08,Wunderground v.1.15,2013-02-08 12:50:00,
2013-02-08 07:56:00,38.9,36.5,29.75,SW,222,3.0,-999.0,91,0.21,,,0.10,Wunderground v.1.15,2013-02-08 12:56:00,
2013-02-08 08:02:00,38.9,36.5,29.75,SSW,209,3.0,-999.0,91,0.07,,,0.10,Wunderground v.1.15,2013-02-08 13:02:00,
2013-02-08 08:07:00,38.8,36.4,29.75,South,190,2.0,-999.0,91,0.07,,,0.11,Wunderground v.1.15,2013-02-08 13:07:00,
2013-02-08 08:13:00,38.6,36.5,29.75,South,190,2.0,-999.0,92,0.07,,,0.12,Wunderground v.1.15,2013-02-08 13:13:00,
2013-02-08 08:19:00,38.5,36.4,29.75,South,190,2.0,-999.0,92,0.07,,,0.12,Wunderground v.1.15,2013-02-08 13:19:00,
2013-02-08 08:24:00,38.3,36.2,29.76,WSW,245,1.0,-999.0,92,0.05,,,0.12,Wunderground v.1.15,2013-02-08 13:24:00,
2013-02-08 08:30:00,38.8,36.7,29.76,SW,216,2.0,-999.0,92,0.00,,,0.12,Wunderground v.1.15,2013-02-08 13:30:00,
2013-02-08 08:36:00,39.2,37.3,29.75,West,262,3.0,-999.0,93,0.00,,,0.12,Wunderground v.1.15,2013-02-08 13:36:00,
2013-02-08 08:42:00,39.2,37.1,29.77,West,265,3.0,-999.0,92,0.00,,,0.13,Wunderground v.1.15,2013-02-08 13:42:00,
2013-02-08 08:48:00,39.1,37.0,29.77,WSW,252,5.0,-999.0,92,0.11,,,0.14,Wunderground v.1.15,2013-02-08 13:48:00,
2013-02-08 08:54:00,38.8,36.4,29.77,WNW,282,6.0,-999.0,91,0.05,,,0.14,Wunderground v.1.15,2013-02-08 13:54:00,
2013-02-08 09:00:00,38.6,36.2,29.77,WNW,296,5.0,-999.0,91,0.00,,,0.14,Wunderground v.1.15,2013-02-08 14:00:00,
2013-02-08 09:06:00,38.5,36.1,29.77,WNW,296,4.0,-999.0,91,0.00,,,0.14,Wunderground v.1.15,2013-02-08 14:06:00,
2013-02-08 09:12:00,38.3,35.6,29.78,West,267,4.0,-999.0,90,0.00,,,0.14,Wunderground v.1.15,2013-02-08 14:12:00,
2013-02-08 09:17:00,38.2,35.5,29.78,NW,305,6.0,-999.0,90,0.00,,,0.14,Wunderground v.1.15,2013-02-08 14:17:00,
2013-02-08 09:23:00,38.0,35.3,29.78,WNW,298,7.0,-999.0,90,0.00,,,0.14,Wunderground v.1.15,2013-02-08 14:23:00,
2013-02-08 09:29:00,37.7,35.0,29.78,WNW,300,6.0,-999.0,90,0.00,,,0.14,Wunderground v.1.15,2013-02-08 14:29:00,
2013-02-08 09:35:00,37.5,35.1,29.78,NW,304,5.0,-999.0,91,0.00,,,0.14,Wunderground v.1.15,2013-02-08 14:35:00,
2013-02-08 09:41:00,37.3,34.9,29.79,West,259,5.0,-999.0,91,0.00,,,0.14,Wunderground v.1.15,2013-02-08 14:41:00,
2013-02-08 09:47:00,36.9,34.5,29.79,WSW,257,5.0,-999.0,91,0.00,,,0.14,Wunderground v.1.15,2013-02-08 14:47:00,
2013-02-08 09:53:00,36.5,34.1,29.79,WNW,288,5.0,-999.0,91,0.00,,,0.14,Wunderground v.1.15,2013-02-08 14:53:00,
2013-02-08 09:59:00,36.3,33.9,29.80,WNW,294,5.0,-999.0,91,0.00,,,0.14,Wunderground v.1.15,2013-02-08 14:59:00,
2013-02-08 10:05:00,36.0,33.6,29.80,NW,309,4.0,-999.0,91,0.00,,,0.14,Wunderground v.1.15,2013-02-08 15:05:00,
2013-02-08 10:11:00,35.9,33.5,29.80,WNW,285,4.0,-999.0,91,0.00,,,0.14,Wunderground v.1.15,2013-02-08 15:11:00,
2013-02-08 10:17:00,35.6,33.2,29.81,WNW,302,5.0,-999.0,91,0.00,,,0.14,Wunderground v.1.15,2013-02-08 15:17:00,
2013-02-08 10:23:00,35.4,32.8,29.81,NW,311,4.0,-999.0,90,0.00,,,0.14,Wunderground v.1.15,2013-02-08 15:23:00,
2013-02-08 10:29:00,35.3,32.7,29.81,WNW,302,4.0,-999.0,90,0.00,,,0.14,Wunderground v.1.15,2013-02-08 15:29:00,
2013-02-08 10:35:00,35.1,32.5,29.82,NW,306,5.0,-999.0,90,0.00,,,0.14,Wunderground v.1.15,2013-02-08 15:35:00,
2013-02-08 10:41:00,35.0,32.6,29.82,WNW,296,6.0,-999.0,91,0.00,,,0.14,Wunderground v.1.15,2013-02-08 15:41:00,
2013-02-08 10:47:00,34.8,32.2,29.83,NW,313,4.0,-999.0,90,0.00,,,0.14,Wunderground v.1.15,2013-02-08 15:47:00,
2013-02-08 10:52:00,34.6,32.0,29.83,NW,311,5.0,-999.0,90,0.00,,,0.14,Wunderground v.1.15,2013-02-08 15:52:00,
2013-02-08 10:58:00,34.3,31.9,29.83,NW,309,6.0,-999.0,91,0.00,,,0.14,Wunderground v.1.15,2013-02-08 15:58:00,
2013-02-08 11:03:00,34.2,31.6,29.83,WNW,303,5.0,-999.0,90,0.00,,,0.14,Wunderground v.1.15,2013-02-08 16:03:00,
2013-02-08 11:09:00,34.1,31.7,29.84,WNW,287,3.0,-999.0,91,0.00,,,0.14,Wunderground v.1.15,2013-02-08 16:09:00,
2013-02-08 11:15:00,34.0,31.4,29.84,NW,306,4.0,-999.0,90,0.00,,,0.14,Wunderground v.1.15,2013-02-08 16:15:00,
2013-02-08 11:21:00,33.8,31.2,29.84,NW,320,4.0,-999.0,90,0.00,,,0.14,Wunderground v.1.15,2013-02-08 16:21:00,
2013-02-08 11:26:00,33.7,31.1,29.85,WNW,302,4.0,-999.0,90,0.00,,,0.14,Wunderground v.1.15,2013-02-08 16:26:00,
2013-02-08 11:32:00,33.5,30.9,29.85,NW,319,5.0,-999.0,90,0.00,,,0.14,Wunderground v.1.15,2013-02-08 16:32:00,
2013-02-08 11:38:00,33.4,30.8,29.85,NW,319,5.0,-999.0,90,0.00,,,0.14,Wunderground v.1.15,2013-02-08 16:38:00,
2013-02-08 11:44:00,33.3,30.7,29.86,NW,322,4.0,-999.0,90,0.00,,,0.14,Wunderground v.1.15,2013-02-08 16:44:00,
2013-02-08 11:49:00,33.2,30.6,29.86,NNW,336,4.0,-999.0,90,0.00,,,0.14,Wunderground v.1.15,2013-02-08 16:49:00,
2013-02-08 11:55:00,33.2,30.3,29.86,NNE,33,3.0,-999.0,89,0.00,,,0.14,Wunderground v.1.15,2013-02-08 16:55:00,
2013-02-08 12:01:00,33.0,29.8,29.86,WNW,288,3.0,-999.0,88,0.00,,,0.14,Wunderground v.1.15,2013-02-08 17:01:00,
2013-02-08 12:07:00,32.8,29.6,29.86,NW,320,5.0,-999.0,88,0.00,,,0.14,Wunderground v.1.15,2013-02-08 17:07:00,
2013-02-08 12:13:00,32.7,29.5,29.87,NW,305,5.0,-999.0,88,0.00,,,0.14,Wunderground v.1.15,2013-02-08 17:13:00,
2013-02-08 12:19:00,32.6,29.2,29.87,NNW,327,3.0,-999.0,87,0.00,,,0.14,Wunderground v.1.15,2013-02-08 17:19:00,
2013-02-08 12:24:00,32.5,28.8,29.87,WNW,294,5.0,-999.0,86,0.00,,,0.14,Wunderground v.1.15,2013-02-08 17:24:00,
2013-02-08 12:30:00,32.4,28.7,29.87,NW,325,6.0,-999.0,86,0.00,,,0.14,Wunderground v.1.15,2013-02-08 17:30:00,
2013-02-08 12:36:00,32.2,28.2,29.87,NW,305,7.0,-999.0,85,0.00,,,0.14,Wunderground v.1.15,2013-02-08 17:36:00,
2013-02-08 12:42:00,32.1,28.1,29.87,WNW,303,8.0,-999.0,85,0.00,,,0.14,Wunderground v.1.15,2013-02-08 17:42:00,
2013-02-08 12:48:00,32.1,28.4,29.88,NW,311,6.0,-999.0,86,0.00,,,0.14,Wunderground v.1.15,2013-02-08 17:48:00,
2013-02-08 12:54:00,32.0,28.3,29.88,WNW,300,5.0,-999.0,86,0.00,,,0.14,Wunderground v.1.15,2013-02-08 17:54:00,
2013-02-08 13:00:00,32.0,28.3,29.89,NW,314,6.0,-999.0,86,0.00,,,0.14,Wunderground v.1.15,2013-02-08 18:00:00,
2013-02-08 13:05:00,31.9,27.9,29.88,WNW,295,6.0,-999.0,85,0.00,,,0.14,Wunderground v.1.15,2013-02-08 18:05:00,
2013-02-08 13:11:00,31.7,28.0,29.89,WNW,282,7.0,-999.0,86,0.00,,,0.14,Wunderground v.1.15,2013-02-08 18:11:00,
2013-02-08 13:17:00,31.7,28.0,29.89,WNW,296,7.0,-999.0,86,0.00,,,0.14,Wunderground v.1.15,2013-02-08 18:17:00,
2013-02-08 13:22:00,31.6,27.9,29.90,NNW,348,5.0,-999.0,86,0.00,,,0.14,Wunderground v.1.15,2013-02-08 18:22:00,
2013-02-08 13:27:00,31.6,27.6,29.90,NNW,340,6.0,-999.0,85,0.00,,,0.14,Wunderground v.1.15,2013-02-08 18:27:00,
2013-02-08 13:32:00,31.5,27.5,29.90,WNW,284,6.0,-999.0,85,0.00,,,0.14,Wunderground v.1.15,2013-02-08 18:32:00,
2013-02-08 13:38:00,31.4,27.1,29.91,WNW,298,6.0,-999.0,84,0.00,,,0.14,Wunderground v.1.15,2013-02-08 18:38:00,
2013-02-08 13:43:00,31.2,26.6,29.91,North,350,6.0,-999.0,83,0.00,,,0.14,Wunderground v.1.15,2013-02-08 18:43:00,
2013-02-08 13:49:00,31.1,26.5,29.92,NNW,334,5.0,-999.0,83,0.00,,,0.14,Wunderground v.1.15,2013-02-08 18:49:00,
2013-02-08 13:54:00,31.0,26.4,29.92,WNW,298,4.0,-999.0,83,0.00,,,0.14,Wunderground v.1.15,2013-02-08 18:54:00,
2013-02-08 14:00:00,31.0,26.7,29.93,NW,313,5.0,-999.0,84,0.00,,,0.14,Wunderground v.1.15,2013-02-08 19:00:00,
2013-02-08 14:05:00,30.8,26.5,29.93,WNW,300,5.0,-999.0,84,0.00,,,0.14,Wunderground v.1.15,2013-02-08 19:05:00,
2013-02-08 14:11:00,30.5,26.2,29.93,NNW,345,5.0,-999.0,84,0.00,,,0.14,Wunderground v.1.15,2013-02-08 19:11:00,
2013-02-08 14:17:00,30.5,26.2,29.94,North,5,3.0,-999.0,84,0.00,,,0.14,Wunderground v.1.15,2013-02-08 19:17:00,
2013-02-08 14:23:00,30.2,25.7,29.94,WNW,303,3.0,-999.0,83,0.00,,,0.14,Wunderground v.1.15,2013-02-08 19:23:00,
2013-02-08 14:29:00,30.1,25.6,29.94,NW,321,4.0,-999.0,83,0.00,,,0.14,Wunderground v.1.15,2013-02-08 19:29:00,
2013-02-08 14:35:00,30.0,25.5,29.94,North,360,3.0,-999.0,83,0.00,,,0.14,Wunderground v.1.15,2013-02-08 19:35:00,
2013-02-08 14:41:00,30.0,25.8,29.95,NE,46,2.0,-999.0,84,0.00,,,0.14,Wunderground v.1.15,2013-02-08 19:41:00,
2013-02-08 14:47:00,29.9,25.1,29.94,NNW,328,5.0,-999.0,82,0.00,,,0.14,Wunderground v.1.15,2013-02-08 19:47:00,
2013-02-08 14:52:00,29.9,25.4,29.95,NNW,342,6.0,-999.0,83,0.00,,,0.14,Wunderground v.1.15,2013-02-08 19:52:00,
2013-02-08 14:57:00,30.0,25.5,29.95,WNW,289,3.0,-999.0,83,0.00,,,0.14,Wunderground v.1.15,2013-02-08 19:57:00,
2013-02-08 15:03:00,29.9,24.8,29.95,NNE,29,5.0,-999.0,81,0.00,,,0.14,Wunderground v.1.15,2013-02-08 20:03:00,
2013-02-08 15:09:00,30.0,25.2,29.95,NE,53,4.0,-999.0,82,0.00,,,0.14,Wunderground v.1.15,2013-02-08 20:09:00,
2013-02-08 15:15:00,29.9,25.1,29.95,West,259,3.0,-999.0,82,0.00,,,0.14,Wunderground v.1.15,2013-02-08 20:15:00,
2013-02-08 15:21:00,29.9,25.1,29.96,NW,313,3.0,-999.0,82,0.00,,,0.14,Wunderground v.1.15,2013-02-08 20:21:00,
2013-02-08 15:27:00,29.8,25.0,29.96,ESE,104,2.0,-999.0,82,0.00,,,0.14,Wunderground v.1.15,2013-02-08 20:27:00,
2013-02-08 15:33:00,29.8,25.3,29.97,NW,320,2.0,-999.0,83,0.00,,,0.14,Wunderground v.1.15,2013-02-08 20:33:00,
2013-02-08 15:39:00,29.7,24.9,29.97,NW,304,3.0,-999.0,82,0.00,,,0.14,Wunderground v.1.15,2013-02-08 20:39:00,
2013-02-08 15:45:00,29.5,24.7,29.98,NNW,343,6.0,-999.0,82,0.00,,,0.14,Wunderground v.1.15,2013-02-08 20:45:00,
2013-02-08 15:51:00,29.5,24.7,29.98,North,360,5.0,-999.0,82,0.00,,,0.14,Wunderground v.1.15,2013-02-08 20:51:00,
2013-02-08 15:57:00,29.3,24.5,29.99,West,263,4.0,-999.0,82,0.00,,,0.14,Wunderground v.1.15,2013-02-08 20:57:00,
2013-02-08 16:03:00,29.2,24.4,29.99,North,360,5.0,-999.0,82,0.00,,,0.14,Wunderground v.1.15,2013-02-08 21:03:00,
2013-02-08 16:09:00,29.1,24.3,30.00,North,350,5.0,-999.0,82,0.00,,,0.14,Wunderground v.1.15,2013-02-08 21:09:00,
2013-02-08 16:15:00,29.1,24.3,30.00,NE,35,3.0,-999.0,82,0.00,,,0.14,Wunderground v.1.15,2013-02-08 21:15:00,
2013-02-08 16:20:00,29.1,24.3,30.00,NNW,331,2.0,-999.0,82,0.00,,,0.14,Wunderground v.1.15,2013-02-08 21:20:00,
2013-02-08 16:26:00,29.1,24.3,30.00,NW,317,3.0,-999.0,82,0.00,,,0.14,Wunderground v.1.15,2013-02-08 21:26:00,
2013-02-08 16:32:00,28.9,24.1,30.01,NW,323,4.0,-999.0,82,0.00,,,0.14,Wunderground v.1.15,2013-02-08 21:32:00,
2013-02-08 16:37:00,28.9,24.1,30.02,NW,311,3.0,-999.0,82,0.00,,,0.14,Wunderground v.1.15,2013-02-08 21:37:00,
2013-02-08 16:43:00,28.8,24.0,30.02,North,5,3.0,-999.0,82,0.00,,,0.14,Wunderground v.1.15,2013-02-08 21:43:00,
2013-02-08 16:49:00,28.7,23.9,30.02,NNW,348,3.0,-999.0,82,0.00,,,0.14,Wunderground v.1.15,2013-02-08 21:49:00,
2013-02-08 16:55:00,28.6,24.1,30.02,NW,321,1.0,-999.0,83,0.00,,,0.14,Wunderground v.1.15,2013-02-08 21:55:00,
2013-02-08 17:00:00,28.6,24.1,30.03,NW,311,2.0,-999.0,83,0.00,,,0.14,Wunderground v.1.15,2013-02-08 22:00:00,
2013-02-08 17:06:00,28.5,24.0,30.03,NE,45,2.0,-999.0,83,0.00,,,0.14,Wunderground v.1.15,2013-02-08 22:06:00,
2013-02-08 17:12:00,28.4,23.9,30.03,North,360,2.0,-999.0,83,0.00,,,0.14,Wunderground v.1.15,2013-02-08 22:12:00,
2013-02-08 17:18:00,28.2,23.7,30.03,North,355,2.0,-999.0,83,0.00,,,0.14,Wunderground v.1.15,2013-02-08 22:18:00,
2013-02-08 17:24:00,28.0,23.5,30.04,NW,308,2.0,-999.0,83,0.00,,,0.14,Wunderground v.1.15,2013-02-08 22:24:00,
2013-02-08 17:30:00,27.9,23.4,30.04,NNW,331,2.0,-999.0,83,0.00,,,0.14,Wunderground v.1.15,2013-02-08 22:30:00,
2013-02-08 17:36:00,27.9,23.7,30.05,NW,309,1.0,-999.0,84,0.00,,,0.14,Wunderground v.1.15,2013-02-08 22:36:00,
2013-02-08 17:42:00,27.8,23.6,30.05,NW,318,2.0,-999.0,84,0.00,,,0.14,Wunderground v.1.15,2013-02-08 22:42:00,
2013-02-08 17:47:00,27.8,23.9,30.05,NW,309,2.0,-999.0,85,0.00,,,0.14,Wunderground v.1.15,2013-02-08 22:47:00,
2013-02-08 17:53:00,27.8,23.9,30.06,NNW,333,2.0,-999.0,85,0.00,,,0.14,Wunderground v.1.15,2013-02-08 22:53:00,
2013-02-08 17:58:00,27.9,24.0,30.06,NNE,28,2.0,-999.0,85,0.00,,,0.14,Wunderground v.1.15,2013-02-08 22:58:00,
2013-02-08 18:04:00,27.9,24.0,30.07,North,5,2.0,-999.0,85,0.00,,,0.14,Wunderground v.1.15,2013-02-08 23:04:00,
2013-02-08 18:10:00,27.8,23.9,30.07,NNE,31,3.0,-999.0,85,0.00,,,0.14,Wunderground v.1.15,2013-02-08 23:10:00,
2013-02-08 18:15:00,27.6,23.7,30.07,NNE,23,3.0,-999.0,85,0.00,,,0.14,Wunderground v.1.15,2013-02-08 23:15:00,
2013-02-08 18:21:00,27.4,23.5,30.08,NE,42,4.0,-999.0,85,0.00,,,0.14,Wunderground v.1.15,2013-02-08 23:21:00,
2013-02-08 18:27:00,27.3,23.4,30.08,NW,325,3.0,-999.0,85,0.00,,,0.14,Wunderground v.1.15,2013-02-08 23:27:00,
2013-02-08 18:33:00,27.2,23.3,30.08,NW,318,2.0,-999.0,85,0.00,,,0.14,Wunderground v.1.15,2013-02-08 23:33:00,
2013-02-08 18:39:00,27.2,23.3,30.08,NNE,13,1.0,-999.0,85,0.00,,,0.14,Wunderground v.1.15,2013-02-08 23:39:00,
2013-02-08 18:45:00,27.1,23.5,30.08,NNE,17,1.0,-999.0,86,0.00,,,0.14,Wunderground v.1.15,2013-02-08 23:45:00,
2013-02-08 18:51:00,27.0,23.4,30.09,NW,325,1.0,-999.0,86,0.00,,,0.14,Wunderground v.1.15,2013-02-08 23:51:00,
2013-02-08 18:57:00,26.9,23.3,30.10,NNE,27,2.0,-999.0,86,0.00,,,0.14,Wunderground v.1.15,2013-02-08 23:57:00,
2013-02-08 19:03:00,26.9,23.3,30.10,NW,304,3.0,-999.0,86,0.00,,,0.14,Wunderground v.1.15,2013-02-09 00:03:00,
2013-02-08 19:09:00,26.9,23.0,30.10,NW,325,2.0,-999.0,85,0.00,,,0.14,Wunderground v.1.15,2013-02-09 00:09:00,
2013-02-08 19:15:00,27.0,23.1,30.10,NW,316,2.0,-999.0,85,0.00,,,0.14,Wunderground v.1.15,2013-02-09 00:15:00,
2013-02-08 19:21:00,27.0,23.1,30.11,WNW,298,1.0,-999.0,85,0.00,,,0.14,Wunderground v.1.15,2013-02-09 00:21:00,
2013-02-08 19:27:00,27.0,22.5,30.11,WNW,287,3.0,-999.0,83,0.00,,,0.14,Wunderground v.1.15,2013-02-09 00:27:00,
2013-02-08 19:33:00,26.8,22.0,30.12,NNW,342,5.0,-999.0,82,0.00,,,0.14,Wunderground v.1.15,2013-02-09 00:33:00,
2013-02-08 19:39:00,26.7,21.7,30.12,NE,41,5.0,-999.0,81,0.00,,,0.14,Wunderground v.1.15,2013-02-09 00:39:00,
2013-02-08 19:45:00,26.7,21.9,30.12,NNW,327,2.0,-999.0,82,0.00,,,0.14,Wunderground v.1.15,2013-02-09 00:45:00,
2013-02-08 19:51:00,26.5,21.5,30.12,NNW,338,2.0,-999.0,81,0.00,,,0.14,Wunderground v.1.15,2013-02-09 00:51:00,
2013-02-08 19:57:00,26.5,21.7,30.13,North,5,2.0,-999.0,82,0.00,,,0.14,Wunderground v.1.15,2013-02-09 00:57:00,
2013-02-08 20:03:00,26.5,21.7,30.13,WNW,287,2.0,-999.0,82,0.00,,,0.14,Wunderground v.1.15,2013-02-09 01:03:00,
2013-02-08 20:08:00,26.5,21.7,30.14,NW,310,2.0,-999.0,82,0.00,,,0.14,Wunderground v.1.15,2013-02-09 01:08:00,
2013-02-08 20:14:00,26.4,21.9,30.14,NW,305,1.0,-999.0,83,0.00,,,0.14,Wunderground v.1.15,2013-02-09 01:14:00,
2013-02-08 20:20:00,26.4,21.9,30.14,NW,319,1.0,-999.0,83,0.00,,,0.14,Wunderground v.1.15,2013-02-09 01:20:00,
2013-02-08 20:25:00,26.4,21.9,30.14,North,5,1.0,-999.0,83,0.00,,,0.14,Wunderground v.1.15,2013-02-09 01:25:00,
2013-02-08 20:31:00,26.3,21.8,30.15,North,360,2.0,-999.0,83,0.00,,,0.14,Wunderground v.1.15,2013-02-09 01:31:00,
2013-02-08 20:37:00,26.3,21.8,30.15,NW,324,2.0,-999.0,83,0.00,,,0.14,Wunderground v.1.15,2013-02-09 01:37:00,
2013-02-08 20:42:00,26.3,21.6,30.15,North,349,2.0,-999.0,82,0.00,,,0.14,Wunderground v.1.15,2013-02-09 01:42:00,
2013-02-08 20:48:00,26.3,21.6,30.15,NNE,33,2.0,-999.0,82,0.00,,,0.14,Wunderground v.1.15,2013-02-09 01:48:00,
2013-02-08 20:54:00,26.3,21.6,30.15,NW,311,3.0,-999.0,82,0.00,,,0.14,Wunderground v.1.15,2013-02-09 01:54:00,
2013-02-08 21:00:00,26.3,21.6,30.16,NW,305,3.0,-999.0,82,0.00,,,0.14,Wunderground v.1.15,2013-02-09 02:00:00,
2013-02-08 21:06:00,26.3,21.6,30.16,NNE,18,2.0,-999.0,82,0.00,,,0.14,Wunderground v.1.15,2013-02-09 02:06:00,
2013-02-08 21:12:00,26.3,21.6,30.17,NNE,26,2.0,-999.0,82,0.00,,,0.14,Wunderground v.1.15,2013-02-09 02:12:00,
2013-02-08 21:18:00,26.3,21.3,30.17,NW,323,3.0,-999.0,81,0.00,,,0.14,Wunderground v.1.15,2013-02-09 02:18:00,
2013-02-08 21:23:00,26.4,21.4,30.17,NNW,339,3.0,-999.0,81,0.00,,,0.14,Wunderground v.1.15,2013-02-09 02:23:00,
2013-02-08 21:29:00,26.4,21.4,30.17,NW,325,3.0,-999.0,81,0.00,,,0.14,Wunderground v.1.15,2013-02-09 02:29:00,
2013-02-08 21:35:00,26.3,21.6,30.18,North,11,2.0,-999.0,82,0.00,,,0.14,Wunderground v.1.15,2013-02-09 02:35:00,
2013-02-08 21:41:00,26.3,21.6,30.18,NNW,342,2.0,-999.0,82,0.00,,,0.14,Wunderground v.1.15,2013-02-09 02:41:00,
2013-02-08 21:47:00,26.3,21.6,30.18,NW,314,2.0,-999.0,82,0.00,,,0.14,Wunderground v.1.15,2013-02-09 02:47:00,
2013-02-08 21:53:00,26.2,21.7,30.18,NNW,344,2.0,-999.0,83,0.00,,,0.14,Wunderground v.1.15,2013-02-09 02:53:00,
2013-02-08 21:59:00,26.1,21.6,30.18,NNE,25,2.0,-999.0,83,0.00,,,0.14,Wunderground v.1.15,2013-02-09 02:59:00,
2013-02-08 22:05:00,26.1,21.6,30.19,NW,317,2.0,-999.0,83,0.00,,,0.14,Wunderground v.1.15,2013-02-09 03:05:00,
2013-02-08 22:11:00,26.1,21.6,30.19,NNW,340,2.0,-999.0,83,0.00,,,0.14,Wunderground v.1.15,2013-02-09 03:11:00,
2013-02-08 22:17:00,26.1,21.6,30.19,NW,323,2.0,-999.0,83,0.00,,,0.14,Wunderground v.1.15,2013-02-09 03:17:00,
2013-02-08 22:23:00,26.1,21.4,30.19,North,5,2.0,-999.0,82,0.00,,,0.14,Wunderground v.1.15,2013-02-09 03:23:00,
2013-02-08 22:29:00,26.1,21.1,30.19,NNW,329,2.0,-999.0,81,0.00,,,0.14,Wunderground v.1.15,2013-02-09 03:29:00,
2013-02-08 22:35:00,26.1,21.1,30.19,North,11,3.0,-999.0,81,0.00,,,0.14,Wunderground v.1.15,2013-02-09 03:35:00,
2013-02-08 22:41:00,26.1,21.1,30.19,NNE,13,3.0,-999.0,81,0.00,,,0.14,Wunderground v.1.15,2013-02-09 03:41:00,
2013-02-08 22:47:00,26.1,20.8,30.19,NNE,23,2.0,-999.0,80,0.00,,,0.14,Wunderground v.1.15,2013-02-09 03:47:00,
2013-02-08 22:53:00,26.1,20.8,30.20,NNW,334,2.0,-999.0,80,0.00,,,0.14,Wunderground v.1.15,2013-02-09 03:53:00,
2013-02-08 22:59:00,26.1,20.8,30.20,NW,305,1.0,-999.0,80,0.00,,,0.14,Wunderground v.1.15,2013-02-09 03:59:00,
2013-02-08 23:04:00,26.1,21.1,30.20,North,351,2.0,-999.0,81,0.00,,,0.14,Wunderground v.1.15,2013-02-09 04:04:00,
2013-02-08 23:10:00,26.1,21.1,30.21,West,273,2.0,-999.0,81,0.00,,,0.14,Wunderground v.1.15,2013-02-09 04:10:00,
2013-02-08 23:16:00,26.0,21.0,30.21,WNW,301,2.0,-999.0,81,0.00,,,0.14,Wunderground v.1.15,2013-02-09 04:16:00,
2013-02-08 23:22:00,25.9,20.9,30.20,NW,315,2.0,-999.0,81,0.00,,,0.14,Wunderground v.1.15,2013-02-09 04:22:00,
2013-02-08 23:27:00,25.9,21.2,30.20,NW,320,2.0,-999.0,82,0.00,,,0.14,Wunderground v.1.15,2013-02-09 04:27:00,
2013-02-08 23:33:00,25.9,21.2,30.20,NW,319,2.0,-999.0,82,0.00,,,0.14,Wunderground v.1.15,2013-02-09 04:33:00,
2013-02-08 23:39:00,25.8,21.1,30.20,NW,320,1.0,-999.0,82,0.00,,,0.14,Wunderground v.1.15,2013-02-09 04:39:00,
2013-02-08 23:45:00,25.8,21.1,30.20,NNW,330,2.0,-999.0,82,0.00,,,0.14,Wunderground v.1.15,2013-02-09 04:45:00,
2013-02-08 23:51:00,25.7,21.0,30.20,West,269,2.0,-999.0,82,0.00,,,0.14,Wunderground v.1.15,2013-02-09 04:51:00,
2013-02-08 23:57:00,25.7,21.3,30.21,NNW,331,2.0,-999.0,83,0.00,,,0.14,Wunderground v.1.15,2013-02-09 04:57:00,